DELTA 1 DEB, 42085

Orbit data source: Space-Track

DELTA 1 DEB, 42085 is space debris in SSO originally from a launch on Sun, 15 Dec 1968 UTC launched from the Air Force Western Test Range (AFWTR). Debris objects in space refer to the collection of defunct objects orbiting the Earth. Examples of debris include non-operational satellites, rocket bodies, and fragments generated from explosions, collisions, or faulty payload assembly.

Loading next visibility...
Identifier
42085, 1968-114M
Orbit
SSO
Country
Flag of USUS
Related business
Manufacturer
Aerojet
Mission
Spacecraft
Bus & Motor
Unknown
Mass
Unknown
Launch date (UTC)
1968-12-15 (58 years ago)
Launch vehicle
Unknown
Launch site
Air Force Western Test Range (AFWTR)
Object type
Payload
Rocket body
Debris
Shape & HBR
Unknown shape, 0.1 m
Radar Cross Section
Small (<0.1 m²)

Expand to show TLE details & history
Last TLE update: 3 days ago

TLE from 3 days ago
0 DELTA 1 DEB
1 42085U 68114M   26170.39036205 -.00000153  00000-0 -43850-3 0  9997
2 42085 100.9123 231.7066 0109905   1.2561  59.1634 12.84476346589433
Epoch: 2026-06-19T09:22Z
TLE epoch observation values (Epoch: 2026-06-19T09:22:07.281Z)
Latitude
59.74747°
Longitude
164.35453°
Altitude
1,290.823 km
Speed
7.236 km/s
True Right ascension
14h 10m 01s
True Declination
59° 36' 29"
Sunlit
Object was in daylight at epoch
Visualization orbit readout
Latitude
Unknown
Longitude
Unknown
Altitude
Unknown
Speed
Unknown
Apparent Right ascension
Unknown
Apparent Declination
Unknown
Sunlit
N/A
Visualization observer readout
Local Sidereal Time
21:46:20
Azimuth
Unknown
Elevation
Unknown
Doppler factor
Unknown
Orbital elements
Apogee altitude
1,405.595 km
Perigee altitude
1,236.361 km
Semi-major axis
7,699.115 km
Eccentricity
0.01099
Inclination
100.9123°
RAAN
231.7066°
Arg. of periapsis
1.2561°
True anomaly
60.25238°
Mean anomaly
59.1634°
Eccentric anomaly
59.70713°
Mean motion
3.21279 °/min
Orbital period
112.05 mins
BSTAR
-0.0004385
Loading maneuver chart data...
Computing Atmospheric mass density...
Loading historical data...
Loading historical data...
Loading historical data...
Loading historical data...
Loading historical data...
Loading historical data...
Loading historical data...

Documentation

Showing up to 5 results
|